STARLINK-11553, 63006

Orbit data source: Space-Track

STARLINK-11553, 63006 is a payload satellite owned by SpaceX/Seattle (US) in LEO that was launched on Sat, 15 Feb 2025 UTC via an FALCON 9 launch vehicle from the Air Force Eastern Test Range (AFETR). Payload-class satellites include a variety of spacecraft equipped with specific instruments for various scientific and technological missions. These include communications satellites like Starlink; space stations such as the ISS; scientific satellites like the Hubble; Earth observation satellites from companies like Planet Labs, Umbra, and HawkEye 360; GPS; miniature CubeSats for education and research; and military/defense satellites.

Loading next visibility...
Identifier
63006, 2025-032B
Orbit
LEO
Country
Flag of USUS
Related business
Manufacturer
SpaceX/Seattle
Mission
Operational Commercial Communications
Bus & Motor
STARLINK V2MD, Unknown motor
Mass
960 kg wet, ~910 kg dry
Launch date (UTC)
2025-02-15 (8 months ago)
Launch vehicle
FALCON 9
Launch site
Air Force Eastern Test Range (AFETR)
Object type
Payload
Rocket body
Debris
Shape & HBR
Box + 2 Pan, 18.1 m
Radar Cross Section
36.964 m², Large (>1 m²)

Expand to show TLE details & history
Last TLE update: 1 day ago

TLE from 1 day ago
0 STARLINK-11553
1 63006U 25032B   25301.20875807  .00337168  00000-0  24966-2 0  9992
2 63006  43.0008 274.2839 0001465 234.0249 126.0484 15.71118681 41376
Epoch: 2025-10-28T05:00Z
TLE epoch observation values (Epoch: 2025-10-28T05:00:36.697Z)
Latitude
0.00006°
Longitude
162.33152°
Altitude
356.05 km
Speed
7.697 km/s
True Right ascension
18h 17m 08s
True Declination
0° 00' 00"
Sunlit
Object was in daylight at epoch
Visualization orbit readout
Latitude
Unknown
Longitude
Unknown
Altitude
Unknown
Speed
Unknown
Apparent Right ascension
Unknown
Apparent Declination
Unknown
Sunlit
N/A
Visualization observer readout
Local Sidereal Time
00:04:04
Azimuth
Unknown
Elevation
Unknown
Doppler factor
Unknown
Orbital elements
Apogee altitude
358.667 km
Perigee altitude
356.694 km
Semi-major axis
6,735.817 km
Eccentricity
0.00015
Inclination
43.0008°
RAAN
274.2839°
Arg. of periapsis
234.0249°
True anomaly
126.06197°
Mean anomaly
126.0484°
Eccentric anomaly
126.05519°
Mean motion
3.92607 °/min
Orbital period
91.69 mins
BSTAR
0.0024966
Loading maneuver chart data...
Computing Atmospheric mass density...
Loading historical data...
Loading historical data...
Loading historical data...
Loading historical data...
Loading historical data...
Loading historical data...
Loading historical data...

Documentation

Showing up to 5 results
|